Weather reports worldwide

Advertisment
Benson, United Kingdom (3658): temperature & dewpoint: 30.06.2020 05:00:00 - 06.07.2020 05:00:00 (BST)Benson, United Kingdom (3658): temperature -20cm & temperature -100cm: 30.06.2020 05:00:00 - 06.07.2020 05:00:00 (BST)Benson, United Kingdom (3658): wind speed & gusts: 30.06.2020 05:00:00 - 06.07.2020 05:00:00 (BST)Benson, United Kingdom (3658): wind direction: 30.06.2020 05:00:00 - 06.07.2020 05:00:00 (BST)Benson, United Kingdom (3658): reduced air pressure: 30.06.2020 05:00:00 - 06.07.2020 05:00:00 (BST)Benson, United Kingdom (3658): visibility: 30.06.2020 05:00:00 - 06.07.2020 05:00:00 (BST)Benson, United Kingdom (3658): precipitation: 30.06.2020 05:00:00 - 06.07.2020 05:00:00 (BST)
Date & Time tt [°C] td [°C] tt -20cm [°C] tt -100cm [°C] ff [km/h] ff [kn] fx [km/h] fx [kn] dd ppp [hPa] vv [km] rr [mm]
06.07.2020 05:00:00 10,7 7,8 - - 11 6 - - SW 1015,9 10 0,0
06.07.2020 04:00:00 12,0 7,9 - - 16 9 - - WSW 1015,5 27 0,0
06.07.2020 03:00:00 12,2 8,3 - - 16 9 - - WSW 1015,3 25 0,0
06.07.2020 02:00:00 12,6 8,5 - - 15 8 - - WSW 1015,0 10 0,0
06.07.2020 01:00:00 12,5 8,9 - - 16 9 - - SW 1014,7 19 0,0
06.07.2020 00:00:00 12,7 8,6 - - 22 12 - - SW 1014,2 10 0,0
05.07.2020 23:00:00 12,9 8,4 - - 16 9 - - SW 1014,2 10 0,0
05.07.2020 22:00:00 13,4 8,5 - - 21 11 - - SW 1013,9 10 0,0
05.07.2020 21:00:00 14,6 8,1 - - 28 15 50 27 WSW 1013,5 10 0,0
05.07.2020 20:00:00 15,9 7,7 - - 35 19 63 34 WSW 1012,9 10 0,0
05.07.2020 19:00:00 16,7 7,1 - - 35 19 55 30 WSW 1012,5 10 0,0
05.07.2020 18:00:00 17,2 7,2 - - 42 23 61 33 WSW 1012,5 10 0,0
05.07.2020 17:00:00 17,6 6,8 - - 39 21 61 33 WSW 1012,5 30 0,0
05.07.2020 16:00:00 18,0 7,0 - - 35 19 63 34 WSW 1012,2 35 0,0
05.07.2020 15:00:00 17,6 7,3 - - 35 19 57 31 WSW 1012,2 10 0,0
05.07.2020 14:00:00 19,1 8,4 - - 35 19 57 31 WSW 1011,5 10 0,0
05.07.2020 13:00:00 18,2 7,3 - - 31 17 50 27 WSW 1011,3 35 0,0
05.07.2020 12:00:00 18,0 7,9 - - 31 17 55 30 WSW 1011,2 10 0,0
05.07.2020 11:00:00 18,3 9,0 - - 35 19 54 29 WSW 1010,5 30 0,0
05.07.2020 10:00:00 17,9 10,4 16,7 15,7 35 19 54 29 WSW 1010,2 30 0,0
05.07.2020 09:00:00 16,6 11,6 - - 34 18 50 27 WSW 1010,1 10 0,0
05.07.2020 08:00:00 16,2 12,4 - - 28 15 46 25 WSW 1009,4 35 0,0
05.07.2020 07:00:00 16,1 13,9 - - 26 14 46 25 WSW 1008,8 10 0,8
05.07.2020 06:00:00 15,9 15,2 - - 18 10 - - SW 1008,1 2,8 0,0
05.07.2020 05:00:00 16,0 15,1 - - 28 15 48 26 SSW 1007,8 9 0,0
05.07.2020 04:00:00 16,8 14,7 - - 29 16 50 27 SSW 1007,7 10 0,0
05.07.2020 03:00:00 17,1 15,0 - - 28 15 48 26 SSW 1008,0 10 0,0
05.07.2020 02:00:00 17,1 14,7 - - 28 15 50 27 SSW 1008,7 10 0,0
05.07.2020 01:00:00 17,0 14,6 - - 29 16 46 25 SSW 1009,1 10 0,0
05.07.2020 00:00:00 17,4 15,0 - - 24 13 - - SSW 1009,5 10 0,0
04.07.2020 23:00:00 17,7 15,3 - - 22 12 - - SSW 1009,7 30 0,0
04.07.2020 22:00:00 17,9 15,3 - - 24 13 - - SSW 1010,0 35 0,0
04.07.2020 21:00:00 18,3 15,0 - - 26 14 - - WSW 1009,8 40 0,0
04.07.2020 20:00:00 18,5 15,5 - - 21 11 - - SW 1009,8 10 0,0
04.07.2020 19:00:00 18,6 16,6 - - 18 10 - - SSW 1009,8 10 0,0
04.07.2020 18:00:00 18,7 16,9 - - 21 11 - - SSW 1009,9 10 0,2
04.07.2020 17:00:00 18,4 16,4 - - 18 10 - - SW 1010,1 10 0,0
04.07.2020 16:00:00 19,5 16,0 - - 22 12 - - SW 1009,8 10 0,0
04.07.2020 15:00:00 19,2 15,8 - - 28 15 - - SSW 1009,9 35 0,0
04.07.2020 14:00:00 18,9 15,3 - - 22 12 - - SW 1010,4 40 0,0
04.07.2020 13:00:00 18,7 15,3 - - 22 12 - - SSW 1010,2 10 0,0
04.07.2020 12:00:00 18,3 15,3 - - 21 11 - - SSW 1010,4 10 0,0
04.07.2020 11:00:00 18,5 15,2 - - 26 14 - - SW 1010,3 45 0,0
04.07.2020 10:00:00 18,0 15,4 16,7 15,7 22 12 - - SSW 1010,1 10 0,0
04.07.2020 09:00:00 17,0 15,5 - - 26 14 - - SSW 1010,3 23 0,0
04.07.2020 08:00:00 17,0 15,1 - - 24 13 - - SSW 1010,0 40 0,0
04.07.2020 07:00:00 16,3 15,0 - - 21 11 - - SSW 1010,2 40 0,0
04.07.2020 06:00:00 15,6 14,9 - - 18 10 - - S 1010,2 10 0,0
04.07.2020 05:00:00 15,4 14,6 - - 21 11 - - SSW 1010,5 19 0,0
04.07.2020 04:00:00 15,2 14,5 - - 22 12 - - S 1010,8 7 0,0
04.07.2020 03:00:00 15,0 14,4 - - 21 11 - - S 1011,2 10 0,0
04.07.2020 02:00:00 15,1 14,1 - - 21 11 - - S 1011,6 25 0,0
04.07.2020 01:00:00 14,9 13,6 - - 22 12 - - SSW 1012,4 27 0,0
04.07.2020 00:00:00 14,7 13,3 - - 21 11 - - SSW 1012,9 26 0,0
03.07.2020 23:00:00 14,6 12,9 - - 21 11 - - SSW 1013,5 10 0,0
03.07.2020 22:00:00 14,5 12,7 - - 22 12 - - SSW 1013,7 10 0,2
03.07.2020 21:00:00 14,3 12,8 - - 26 14 - - SSW 1013,6 10 0,2
03.07.2020 20:00:00 14,3 12,9 - - 24 13 - - S 1013,9 19 0,6
03.07.2020 19:00:00 14,6 12,4 - - 26 14 - - SSW 1014,5 10 1,0
03.07.2020 18:00:00 16,7 11,4 - - 28 15 50 27 SSW 1014,5 10 0,0
03.07.2020 17:00:00 18,4 11,2 - - 31 17 48 26 SW 1014,4 29 0,0
03.07.2020 16:00:00 19,1 11,6 - - 26 14 - - SW 1014,5 29 0,0
03.07.2020 15:00:00 19,0 10,6 - - 28 15 - - SW 1014,8 10 0,0
03.07.2020 14:00:00 20,2 10,7 - - 29 16 - - SW 1015,2 10 0,0
03.07.2020 13:00:00 18,3 9,9 - - 28 15 46 25 SSW 1015,8 10 0,0
03.07.2020 12:00:00 18,1 10,0 - - 31 17 48 26 SSW 1015,9 10 0,0
03.07.2020 11:00:00 16,2 9,7 - - 26 14 - - SW 1016,3 10 0,0
03.07.2020 10:00:00 15,9 10,3 16,7 15,7 24 13 - - SW 1016,0 10 0,0
03.07.2020 09:00:00 15,4 11,2 - - 24 13 - - SSW 1016,3 10 0,0
03.07.2020 08:00:00 14,3 11,1 - - 22 12 - - SSW 1016,2 10 0,0
03.07.2020 07:00:00 12,3 10,8 - - 13 7 - - SSW 1016,3 10 0,0
03.07.2020 06:00:00 11,2 10,2 - - 11 6 - - S 1016,5 22 0,0
03.07.2020 05:00:00 10,6 10,1 - - 11 6 - - S 1016,5 10 0,0
03.07.2020 04:00:00 9,5 8,6 - - 9 5 - - S 1016,4 10 0,0
03.07.2020 03:00:00 10,6 9,8 - - 8 4 - - SSE 1016,4 10 0,0
03.07.2020 02:00:00 11,9 10,5 - - 5 3 - - SSW 1016,3 10 0,0
03.07.2020 01:00:00 13,3 11,6 - - 9 5 - - WSW 1016,2 10 0,0
03.07.2020 00:00:00 14,1 12,5 - - 11 6 - - SW 1016,0 10 0,0
02.07.2020 23:00:00 15,8 13,5 - - 8 4 - - WSW 1015,6 10 0,0
02.07.2020 22:00:00 16,6 13,7 - - 4 2 - - WSW 1015,1 10 0,0
02.07.2020 21:00:00 16,9 13,4 - - 4 2 - - WSW 1014,4 10 0,0
02.07.2020 20:00:00 17,0 12,9 - - 9 5 - - W 1014,0 10 0,0
02.07.2020 19:00:00 17,4 13,5 - - 11 6 - - W 1013,5 10 0,0
02.07.2020 18:00:00 18,0 12,5 - - 21 11 - - W 1012,8 10 0,0
02.07.2020 17:00:00 19,1 12,1 - - 21 11 - - WSW 1012,3 10 0,0
02.07.2020 16:00:00 18,1 12,4 - - 18 10 - - W 1012,1 10 0,0
02.07.2020 15:00:00 17,3 12,3 - - 18 10 - - WSW 1011,7 10 0,0
02.07.2020 14:00:00 17,9 14,1 - - 16 9 - - SW 1011,3 10 0,0
02.07.2020 13:00:00 17,0 14,6 - - 18 10 - - WSW 1010,9 10 0,2
02.07.2020 12:00:00 15,6 15,0 - - 8 4 - - SW 1010,8 30 4,4
02.07.2020 11:00:00 16,2 12,4 - - 16 9 - - WSW 1010,2 10 0,0
02.07.2020 10:00:00 15,8 11,9 16,7 15,7 18 10 - - WSW 1010,1 10 0,0
02.07.2020 09:00:00 14,9 11,7 - - 16 9 - - SW 1009,7 10 0,0
02.07.2020 08:00:00 13,9 11,7 - - 15 8 - - SSW 1009,4 10 0,0
02.07.2020 07:00:00 12,6 10,9 - - 11 6 - - SSW 1009,1 10 0,0
02.07.2020 06:00:00 11,0 10,0 - - 9 5 - - SSW 1009,0 23 0,0
02.07.2020 05:00:00 9,8 8,7 - - 9 5 - - S 1008,9 21 0,0
02.07.2020 04:00:00 10,6 9,6 - - 11 6 - - S 1008,8 10 0,0
02.07.2020 03:00:00 9,6 8,7 - - 13 7 - - S 1008,8 23 0,0
02.07.2020 02:00:00 10,3 8,7 - - 11 6 - - S 1008,6 10 0,0
02.07.2020 01:00:00 11,2 8,3 - - 5 3 - - SSW 1008,7 10 0,0
02.07.2020 00:00:00 13,2 8,3 - - 9 5 - - SW 1008,5 10 0,0
01.07.2020 23:00:00 15,2 8,9 - - 13 7 - - WSW 1008,1 30 0,0
01.07.2020 22:00:00 15,9 8,8 - - 15 8 - - SW 1007,6 10 0,0
01.07.2020 21:00:00 16,3 13,1 - - 11 6 - - SSW 1007,0 30 0,0
01.07.2020 20:00:00 17,1 12,3 - - 18 10 - - SW 1006,8 10 0,0
01.07.2020 19:00:00 17,4 13,6 - - 16 9 - - SSW 1006,5 30 0,0
01.07.2020 18:00:00 18,2 13,4 - - 26 14 - - SSW 1006,2 10 0,0
01.07.2020 17:00:00 19,5 13,9 - - 22 12 - - SSW 1005,8 10 0,0
01.07.2020 16:00:00 19,7 12,2 - - 22 12 - - W 1005,6 10 0,0
01.07.2020 15:00:00 19,8 13,1 - - 21 11 - - WSW 1005,2 10 0,0
01.07.2020 14:00:00 19,5 12,4 - - 28 15 - - WSW 1005,1 10 0,0
01.07.2020 13:00:00 19,3 14,3 - - 22 12 - - SSW 1004,8 10 0,0
01.07.2020 12:00:00 17,6 15,8 - - 21 11 - - SSW 1004,9 10 0,6
01.07.2020 11:00:00 17,6 12,6 - - 21 11 - - SW 1004,8 30 0,0
01.07.2020 10:00:00 16,6 12,6 16,7 15,7 18 10 - - SSW 1004,9 10 0,0
01.07.2020 09:00:00 16,3 12,0 - - 22 12 - - SW 1004,8 10 0,0
01.07.2020 08:00:00 15,5 12,2 - - 18 10 - - SW 1004,4 10 0,0
01.07.2020 07:00:00 14,1 12,1 - - 15 8 - - SSW 1004,3 10 0,0
01.07.2020 06:00:00 14,1 12,2 - - 13 7 - - SSW 1004,0 27 0,0
01.07.2020 05:00:00 14,0 12,3 - - 11 6 - - SSW 1003,8 10 0,0
01.07.2020 04:00:00 14,2 12,5 - - 13 7 - - SSW 1004,1 25 0,0
01.07.2020 03:00:00 14,8 12,6 - - 18 10 - - SSW 1004,2 10 0,0
01.07.2020 02:00:00 15,5 13,3 - - 16 9 - - SSW 1004,3 10 0,0
01.07.2020 01:00:00 15,9 13,5 - - 16 9 - - SSW 1004,5 27 0,0
01.07.2020 00:00:00 16,2 14,2 - - 16 9 - - SSW 1004,7 25 0,0
30.06.2020 23:00:00 16,6 14,9 - - 18 10 - - S 1004,8 10 0,0
30.06.2020 22:00:00 16,6 15,5 - - 11 6 - - S 1005,0 10 0,0
30.06.2020 21:00:00 16,7 15,9 - - 13 7 - - S 1004,7 10 0,4
30.06.2020 20:00:00 17,0 15,9 - - 13 7 - - SSW 1004,9 10 0,4
30.06.2020 19:00:00 18,7 15,0 - - 16 9 - - S 1004,7 10 0,0
30.06.2020 18:00:00 19,3 15,1 - - 16 9 - - SSW 1005,0 10 0,0
30.06.2020 17:00:00 17,8 14,3 - - 18 10 - - SSW 1005,6 10 0,0
30.06.2020 16:00:00 17,3 13,6 - - 18 10 - - SSW 1006,0 10 0,0
30.06.2020 15:00:00 17,6 13,1 - - 21 11 - - SSW 1006,2 10 0,0
30.06.2020 14:00:00 15,9 12,6 - - 16 9 - - SSW 1006,9 10 0,0
30.06.2020 13:00:00 15,9 11,0 - - 18 10 - - SW 1006,9 10 0,0
30.06.2020 12:00:00 15,0 10,5 - - 16 9 - - SSW 1007,2 10 0,0
30.06.2020 11:00:00 15,0 10,6 - - 15 8 - - SSW 1007,2 10 0,0
30.06.2020 10:00:00 14,9 11,1 16,9 15,9 15 8 - - SSW 1007,3 10 0,0
30.06.2020 09:00:00 13,9 10,7 - - 13 7 - - SSW 1007,7 10 0,0
30.06.2020 08:00:00 12,9 10,3 - - 11 6 - - S 1008,0 10 0,0
30.06.2020 07:00:00 12,3 9,5 - - 11 6 - - S 1007,9 24 0,0
30.06.2020 06:00:00 12,7 9,2 - - 16 9 - - SSW 1007,8 30 0,0
30.06.2020 05:00:00 12,7 8,9 - - 16 9 - - S 1007,7 30 0,0

tt = temperature
td = dewpoint
tt -20cm = temperature -20cm
tt -100cm = temperature -100cm
ff = wind speed
fx = gusts
dd = wind direction
ppp = reduced air pressure
vv = visibility
rr = precipitation

Next stations